FW7738 Weather Reports


Display with metric or nautical units.
time (UTC)temp
F
wind
direction
speed
MPH
gust
MPH
rain 1hr
in
rain 24hr
in
rain mn
in
humidity
%
barometer
mb
20260905085027 84 343 1.0 3.0 0.00 0.00 0.00 62 1019.0
20260905084022 83 254 5.0 9.0 0.00 0.00 0.00 64 1019.1
20260905083018 82 303 4.0 6.0 0.00 0.00 0.00 69 1018.8
20260905082033 81 268 3.0 8.0 0.00 0.00 0.00 71 1018.9
20260905081028 81 292 2.0 8.0 0.00 0.00 0.00 74 1018.9
20260905080024 79 255 3.0 6.0 0.00 0.00 0.00 76 1018.9
20260905075019 80 265 5.0 8.0 0.00 0.00 0.00 73 1019.1
20260905074045 79 322 2.0 6.0 0.00 0.00 0.00 71 1018.9
20260905073020 79 297 2.0 4.0 0.00 0.00 0.00 70 1018.9
20260905072034 79 288 1.0 3.0 0.00 0.00 0.00 70 1018.9
20260905071030 78 337 1.0 2.0 0.00 0.00 0.00 71 1018.8
20260905070025 77 2 0.0 2.0 0.00 0.00 0.00 73 1018.7
20260905065021 77 322 0.0 2.0 0.00 0.00 0.00 74 1018.4
20260905064016 76 273 1.0 2.0 0.00 0.00 0.00 77 1018.6
20260905063031 75 301 1.0 3.0 0.00 0.00 0.00 79 1018.6
20260905062026 75 310 1.0 2.0 0.00 0.00 0.00 82 1018.8
20260905061021 74 298 1.0 2.0 0.00 0.00 0.00 83 1018.6
20260905060016 74 297 1.0 3.0 0.00 0.00 0.00 84 1018.6
20260905055032 75 312 0.0 1.0 0.00 0.00 0.00 84 1018.6
20260905054027 75 307 0.0 2.0 0.00 0.00 0.00 84 1018.6
20260905053022 75 302 0.0 1.0 0.00 0.00 0.00 83 1018.4
20260905052017 75 291 1.0 2.0 0.00 0.00 0.00 83 1018.5
20260905051033 75 276 1.0 2.0 0.00 0.00 0.00 82 1018.3
20260905050028 75 276 1.0 2.0 0.00 0.00 0.00 82 1018.4
20260905045023 75 278 1.0 2.0 0.00 0.00 0.00 82 1018.3
20260905044039 75 267 2.0 3.0 0.00 0.00 0.00 82 1018.2
20260905043035 75 260 2.0 3.0 0.00 0.00 0.00 82 1018.3
20260905042030 75 254 2.0 3.0 0.00 0.00 0.00 82 1018.3
20260905041025 75 259 1.0 2.0 0.00 0.00 0.00 84 1018.1
20260905040021 76 251 2.0 3.0 0.00 0.00 0.00 84 1018.3
20260905035055 76 253 2.0 3.0 0.00 0.00 0.00 84 1018.2
20260905034051 76 241 1.0 2.0 0.00 0.00 0.00 84 1018.2
20260905033046 76 235 1.0 1.0 0.00 0.00 0.00 85 1018.0
20260905032021 76 246 1.0 2.0 0.00 0.00 0.00 86 1018.0
20260905031017 76 299 0.0 1.0 0.00 0.00 0.00 86 1018.1
20260905030032 76 0.0 0.0 0.00 0.00 0.00 86 1018.1
20260905025027 76 0.0 0.0 0.00 0.00 0.00 86 1018.1
20260905024022 76 0.0 0.0 0.00 0.00 0.00 86 1017.9
20260905023018 76 301 1.0 1.0 0.00 0.00 0.00 87 1018.0
20260905022033 75 0.0 0.0 0.00 0.00 0.00 87 1018.0
20260905021028 75 0.0 0.0 0.00 0.00 0.00 86 1017.8
20260905020023 76 0.0 0.0 0.00 0.00 0.00 86 1017.8
20260905015019 76 302 0.0 1.0 0.00 0.00 0.00 86 1017.9
20260905014034 76 308 1.0 1.0 0.00 0.00 0.00 87 1017.9
20260905013029 75 347 0.0 1.0 0.00 0.00 0.00 87 1018.0
20260905012025 76 2 0.0 1.0 0.00 0.00 0.00 86 1018.0
20260905011020 76 347 0.0 1.0 0.00 0.00 0.00 86 1018.2
20260905010035 76 0.0 0.0 0.00 0.00 0.00 86 1018.1
20260905005031 76 0.0 0.0 0.00 0.00 0.00 86 1018.1
20260905004026 76 0.0 0.0 0.00 0.00 0.00 86 1017.9
20260905003021 77 0.0 0.0 0.00 0.00 0.00 84 1017.9
20260905002016 78 0.0 0.0 0.00 0.00 0.00 83 1017.9
20260905001112 78 0.0 0.0 0.00 0.00 0.00 84 1017.9
20260905000047 78 345 0.0 1.0 0.00 0.00 0.00 84 1018.0
20260904235042 78 0.0 0.0 0.00 0.00 0.00 84 1018.1
20260904234017 78 0.0 0.0 0.00 0.00 0.00 84 1018.2
20260904233052 78 0.0 0.0 0.00 0.00 0.00 84 1018.0
20260904232047 78 0.0 0.0 0.00 0.00 0.00 84 1018.1
20260904231022 78 0.0 0.0 0.00 0.00 0.00 84 1018.0
20260904230038 78 0.0 0.0 0.00 0.00 0.00 84 1018.1
20260904225033 78 0.0 0.0 0.00 0.00 0.00 84 1018.0
20260904224048 78 0.0 0.0 0.00 0.00 0.00 84 1018.0
20260904223024 78 0.0 0.0 0.00 0.00 0.00 84 1017.9
20260904222020 78 0.0 0.0 0.00 0.00 0.00 84 1017.9
20260904221034 78 0.0 0.0 0.00 0.00 0.00 84 1017.9
20260904220030 79 27 1.0 1.0 0.00 0.00 0.00 83 1017.9
20260904215025 79 0.0 0.0 0.00 0.00 0.00 83 1017.9
20260904214041 79 0.0 0.0 0.00 0.00 0.00 83 1017.9
20260904213017 79 75 0.0 1.0 0.00 0.00 0.00 82 1017.9
20260904212112 79 0.0 0.0 0.00 0.00 0.00 82 1018.0
20260904211027 79 0.0 0.0 0.00 0.00 0.00 82 1018.1
20260904210023 79 71 0.0 1.0 0.00 0.00 0.00 82 1018.2
20260904205018 79 55 0.0 3.0 0.00 0.00 0.00 82 1018.1
20260904204033 79 40 0.0 2.0 0.00 0.00 0.00 82 1018.1
20260904203029 79 61 0.0 1.0 0.00 0.00 0.00 82 1017.9
20260904202024 79 64 0.0 2.0 0.00 0.00 0.00 82 1018.0
20260904201020 79 66 1.0 3.0 0.00 0.00 0.00 82 1017.8
20260904200035 80 71 1.0 4.0 0.00 0.00 0.00 81 1017.7
20260904195110 80 58 1.0 2.0 0.00 0.00 0.00 80 1017.6
20260904194025 80 60 0.0 2.0 0.00 0.00 0.00 80 1017.4
20260904193020 80 76 0.0 2.0 0.00 0.00 0.00 79 1017.4
20260904192016 80 49 0.0 1.0 0.00 0.00 0.00 79 1017.3
20260904191032 80 78 1.0 2.0 0.00 0.00 0.00 79 1017.2
20260904190048 80 76 0.0 2.0 0.00 0.00 0.00 79 1017.1
20260904185023 81 62 1.0 3.0 0.00 0.00 0.00 79 1017.0
20260904184018 80 62 1.0 2.0 0.00 0.00 0.00 78 1016.9
20260904183034 80 74 1.0 3.0 0.00 0.00 0.00 78 1016.8
20260904182029 81 75 1.0 3.0 0.00 0.00 0.00 78 1016.8
20260904181024 81 69 1.0 3.0 0.00 0.00 0.00 77 1017.0
20260904180019 82 67 1.0 6.0 0.00 0.00 0.00 76 1016.8
20260904175035 82 69 2.0 4.0 0.00 0.00 0.00 76 1016.7
20260904174030 82 76 2.0 8.0 0.00 0.00 0.00 75 1016.8
20260904173026 83 86 1.0 6.0 0.00 0.00 0.00 75 1016.7
20260904172020 83 73 2.0 7.0 0.00 0.00 0.00 74 1016.7
20260904171016 83 58 1.0 4.0 0.00 0.00 0.00 74 1016.7
20260904170031 83 62 3.0 7.0 0.00 0.00 0.00 73 1016.7
20260904165027 83 54 3.0 6.0 0.00 0.00 0.00 73 1016.6
20260904164021 84 63 3.0 7.0 0.00 0.00 0.00 74 1016.7
20260904163017 84 99 6.0 10.0 0.00 0.00 0.00 74 1016.7
20260904162033 84 92 4.0 10.0 0.00 0.00 0.00 72 1016.8
20260904161028 84 76 4.0 11.0 0.00 0.00 0.00 73 1017.0
20260904160023 84 96 5.0 10.0 0.00 0.00 0.00 75 1017.0
20260904155018 84 86 4.0 8.0 0.00 0.00 0.00 73 1016.9
20260904154054 85 98 2.0 7.0 0.00 0.00 0.00 72 1016.7
20260904153028 84 93 6.0 13.0 0.00 0.00 0.00 73 1016.7
20260904152024 85 109 3.0 8.0 0.00 0.00 0.00 71 1016.7
20260904151019 84 93 5.0 11.0 0.00 0.00 0.00 72 1016.7
20260904150035 84 94 6.0 13.0 0.00 0.00 0.00 72 1016.8
20260904145029 84 86 5.0 15.0 0.00 0.00 0.00 73 1016.8
20260904144025 84 95 8.0 16.0 0.00 0.00 0.00 73 1016.7
20260904143040 84 110 8.0 15.0 0.00 0.00 0.00 74 1016.8
20260904142015 84 91 9.0 16.0 0.00 0.00 0.00 76 1016.7
20260904141032 84 98 9.0 17.0 0.00 0.00 0.00 73 1016.8
20260904140026 85 93 8.0 19.0 0.00 0.00 0.00 70 1017.0
20260904135041 86 117 7.0 13.0 0.00 0.00 0.00 66 1017.0
20260904134017 85 109 7.0 15.0 0.00 0.00 0.00 67 1017.0
20260904133033 86 108 6.0 14.0 0.00 0.00 0.00 67 1017.1
20260904132028 86 112 7.0 15.0 0.00 0.00 0.00 65 1017.3
20260904131103 86 99 5.0 14.0 0.00 0.00 0.00 64 1017.4
20260904130018 87 104 6.0 11.0 0.00 0.00 0.00 64 1017.5
20260904125034 86 118 7.0 15.0 0.00 0.00 0.00 64 1017.5
20260904124029 87 96 6.0 14.0 0.00 0.00 0.00 66 1017.4
20260904123024 87 122 6.0 11.0 0.00 0.00 0.00 64 1017.5
20260904122020 87 123 7.0 11.0 0.00 0.00 0.00 63 1017.5
20260904121035 87 135 7.0 11.0 0.00 0.00 0.00 66 1017.7
20260904120031 87 106 7.0 14.0 0.00 0.00 0.00 65 1017.7
20260904115025 87 142 6.0 10.0 0.00 0.00 0.00 65 1017.9
20260904114041 86 135 6.0 10.0 0.00 0.00 0.00 67 1017.9
20260904113016 87 141 6.0 11.0 0.00 0.00 0.00 67 1017.9
20260904112051 87 147 4.0 13.0 0.00 0.00 0.00 67 1018.0
20260904111027 87 171 6.0 10.0 0.00 0.00 0.00 65 1017.9
20260904110022 87 144 7.0 13.0 0.00 0.00 0.00 64 1018.1
20260904105017 88 146 6.0 11.0 0.00 0.00 0.00 61 1018.1
20260904104032 89 169 5.0 10.0 0.00 0.00 0.00 56 1018.0
20260904103028 91 151 3.0 9.0 0.00 0.00 0.00 51 1018.3
20260904102023 90 148 3.0 8.0 0.00 0.00 0.00 50 1018.4
20260904101018 89 186 2.0 7.0 0.00 0.00 0.00 50 1018.4
20260904100034 88 143 3.0 6.0 0.00 0.00 0.00 51 1018.5
20260904095029 88 156 4.0 9.0 0.00 0.00 0.00 52 1018.5
20260904094024 87 168 4.0 7.0 0.00 0.00 0.00 54 1018.6
20260904093019 87 146 3.0 7.0 0.00 0.00 0.00 53 1018.7
20260904092035 86 162 4.0 7.0 0.00 0.00 0.00 54 1018.6
20260904091050 87 160 2.0 4.0 0.00 0.00 0.00 53 1018.6
20260904090025 88 7 1.0 3.0 0.00 0.00 0.00 52 1018.6